Time,TemperatureF,DewpointF,PressureIn,WindDirection,WindDirectionDegrees,WindSpeedMPH,WindSpeedGustMPH,Humidity,HourlyPrecipIn,Conditions,Clouds,dailyrainin,SoftwareType,DateUTC
2013-06-12 00:05:00,52.7,45.2,29.95,North,0,0.0,-999.0,75,0.00,,,-99.99,,2013-06-12 08:05:00,
2013-06-12 00:10:00,52.5,44.7,29.95,North,0,0.0,-999.0,74,0.00,,,-99.99,,2013-06-12 08:10:00,
2013-06-12 00:15:00,52.4,44.9,29.95,North,0,0.0,-999.0,75,0.00,,,-99.99,,2013-06-12 08:15:00,
2013-06-12 00:20:00,51.9,44.6,29.95,North,0,0.0,-999.0,75,0.00,,,-99.99,,2013-06-12 08:20:00,
2013-06-12 00:25:00,51.6,44.4,29.95,North,0,0.0,-999.0,76,0.00,,,-99.99,,2013-06-12 08:25:00,
2013-06-12 00:30:00,51.2,44.3,29.95,North,0,0.0,-999.0,76,0.00,,,-99.99,,2013-06-12 08:30:00,
2013-06-12 00:35:00,51.0,44.2,29.95,North,0,0.0,-999.0,77,0.00,,,-99.99,,2013-06-12 08:35:00,
2013-06-12 00:40:00,51.0,44.5,29.95,North,0,0.0,-999.0,78,0.00,,,-99.99,,2013-06-12 08:40:00,
2013-06-12 00:45:00,51.2,44.6,29.95,North,0,0.0,-999.0,77,0.00,,,-99.99,,2013-06-12 08:45:00,
2013-06-12 00:50:00,51.0,44.3,29.95,North,0,0.0,-999.0,77,0.00,,,-99.99,,2013-06-12 08:50:00,
2013-06-12 00:55:00,50.8,44.5,29.95,North,0,0.0,-999.0,79,0.00,,,-99.99,,2013-06-12 08:55:00,
2013-06-12 01:00:00,50.9,44.7,29.94,North,0,0.0,-999.0,79,0.00,,,-99.99,,2013-06-12 09:00:00,
2013-06-12 01:05:00,50.6,44.5,29.94,North,0,0.0,-999.0,79,0.00,,,-99.99,,2013-06-12 09:05:00,
2013-06-12 01:10:00,50.5,44.6,29.94,North,0,0.0,-999.0,80,0.00,,,-99.99,,2013-06-12 09:10:00,
2013-06-12 01:15:00,50.5,44.8,29.94,North,0,0.0,-999.0,80,0.00,,,-99.99,,2013-06-12 09:15:00,
2013-06-12 01:20:00,50.5,44.7,29.94,North,0,0.0,-999.0,80,0.00,,,-99.99,,2013-06-12 09:20:00,
2013-06-12 01:25:00,50.3,44.6,29.94,North,0,0.0,-999.0,80,0.00,,,-99.99,,2013-06-12 09:25:00,
2013-06-12 01:30:00,50.1,44.4,29.94,North,0,0.0,-999.0,80,0.00,,,-99.99,,2013-06-12 09:30:00,
2013-06-12 01:35:00,49.9,44.4,29.94,North,0,0.0,-999.0,81,0.00,,,-99.99,,2013-06-12 09:35:00,
2013-06-12 01:40:00,49.7,44.2,29.94,North,0,0.0,-999.0,81,0.00,,,-99.99,,2013-06-12 09:40:00,
2013-06-12 01:45:00,49.7,44.4,29.94,North,0,0.0,-999.0,81,0.00,,,-99.99,,2013-06-12 09:45:00,
2013-06-12 01:50:00,49.4,44.1,29.94,North,0,0.0,-999.0,81,0.00,,,-99.99,,2013-06-12 09:50:00,
2013-06-12 01:55:00,49.3,44.2,29.94,North,0,0.0,-999.0,82,0.00,,,-99.99,,2013-06-12 09:55:00,
2013-06-12 02:00:00,49.2,44.1,29.94,North,0,0.0,-999.0,82,0.00,,,-99.99,,2013-06-12 10:00:00,
2013-06-12 02:05:00,49.4,44.4,29.94,North,0,0.0,-999.0,82,0.00,,,-99.99,,2013-06-12 10:05:00,
2013-06-12 02:10:00,49.2,44.2,29.94,North,0,0.0,-999.0,82,0.00,,,-99.99,,2013-06-12 10:10:00,
2013-06-12 02:15:00,49.0,44.1,29.94,North,0,0.0,-999.0,83,0.00,,,-99.99,,2013-06-12 10:15:00,
2013-06-12 02:20:00,48.9,44.0,29.94,North,0,0.0,-999.0,83,0.00,,,-99.99,,2013-06-12 10:20:00,
2013-06-12 02:25:00,48.9,44.1,29.94,North,0,0.0,-999.0,83,0.00,,,-99.99,,2013-06-12 10:25:00,
2013-06-12 02:30:00,49.0,44.3,29.94,North,0,0.0,-999.0,83,0.00,,,-99.99,,2013-06-12 10:30:00,
2013-06-12 02:35:00,49.0,44.2,29.94,North,0,0.0,-999.0,83,0.00,,,-99.99,,2013-06-12 10:35:00,
2013-06-12 02:40:00,49.0,44.1,29.94,North,0,0.0,-999.0,83,0.00,,,-99.99,,2013-06-12 10:40:00,
2013-06-12 02:45:00,48.7,44.0,29.94,North,0,0.0,-999.0,83,0.00,,,-99.99,,2013-06-12 10:45:00,
2013-06-12 02:50:00,48.7,43.9,29.94,North,0,0.0,-999.0,83,0.00,,,-99.99,,2013-06-12 10:50:00,
2013-06-12 02:55:00,48.4,43.8,29.94,North,0,0.0,-999.0,83,0.00,,,-99.99,,2013-06-12 10:55:00,
2013-06-12 03:00:00,48.4,43.8,29.93,North,0,0.0,-999.0,83,0.00,,,-99.99,,2013-06-12 11:00:00,
2013-06-12 03:05:00,48.2,43.7,29.93,North,0,0.0,-999.0,84,0.00,,,-99.99,,2013-06-12 11:05:00,
2013-06-12 03:10:00,48.3,43.7,29.93,North,0,0.0,-999.0,83,0.00,,,-99.99,,2013-06-12 11:10:00,
2013-06-12 03:15:00,48.0,43.4,29.93,North,0,0.0,-999.0,84,0.00,,,-99.99,,2013-06-12 11:15:00,
2013-06-12 03:20:00,48.0,43.5,29.93,North,0,0.0,-999.0,84,0.00,,,-99.99,,2013-06-12 11:20:00,
2013-06-12 03:25:00,47.8,43.4,29.93,North,0,0.0,-999.0,84,0.00,,,-99.99,,2013-06-12 11:25:00,
2013-06-12 03:30:00,47.8,43.5,29.93,North,0,0.0,-999.0,84,0.00,,,-99.99,,2013-06-12 11:30:00,
2013-06-12 03:35:00,47.6,43.7,29.93,North,0,0.0,-999.0,86,0.00,,,-99.99,,2013-06-12 11:35:00,
2013-06-12 03:40:00,47.5,43.6,29.93,North,0,0.0,-999.0,86,0.00,,,-99.99,,2013-06-12 11:40:00,
2013-06-12 03:45:00,47.4,43.8,29.93,North,0,0.0,-999.0,87,0.00,,,-99.99,,2013-06-12 11:45:00,
2013-06-12 03:50:00,47.3,43.7,29.93,North,0,0.0,-999.0,87,0.00,,,-99.99,,2013-06-12 11:50:00,
2013-06-12 03:55:00,47.4,43.8,29.93,North,0,0.0,-999.0,87,0.00,,,-99.99,,2013-06-12 11:55:00,
2013-06-12 04:00:00,47.3,43.8,29.93,North,0,0.0,-999.0,87,0.00,,,-99.99,,2013-06-12 12:00:00,
2013-06-12 04:05:00,47.1,43.6,29.93,North,0,0.0,-999.0,87,0.00,,,-99.99,,2013-06-12 12:05:00,
2013-06-12 04:10:00,47.1,43.5,29.93,North,0,0.0,-999.0,87,0.00,,,-99.99,,2013-06-12 12:10:00,
2013-06-12 04:15:00,46.9,43.2,29.93,North,0,0.0,-999.0,86,0.00,,,-99.99,,2013-06-12 12:15:00,
2013-06-12 04:20:00,46.7,43.1,29.93,North,0,0.0,-999.0,87,0.00,,,-99.99,,2013-06-12 12:20:00,
2013-06-12 04:25:00,46.5,43.2,29.93,North,0,0.0,-999.0,88,0.00,,,-99.99,,2013-06-12 12:25:00,
2013-06-12 04:30:00,46.7,43.4,29.93,North,0,0.0,-999.0,88,0.00,,,-99.99,,2013-06-12 12:30:00,
2013-06-12 04:35:00,46.7,43.5,29.93,North,0,0.0,-999.0,88,0.00,,,-99.99,,2013-06-12 12:35:00,
2013-06-12 04:40:00,46.5,43.4,29.93,North,0,0.0,-999.0,88,0.00,,,-99.99,,2013-06-12 12:40:00,
2013-06-12 04:45:00,46.4,43.3,29.93,North,0,0.0,-999.0,88,0.00,,,-99.99,,2013-06-12 12:45:00,
2013-06-12 04:50:00,46.5,43.5,29.93,North,0,0.0,-999.0,89,0.00,,,-99.99,,2013-06-12 12:50:00,
2013-06-12 04:55:00,46.3,43.2,29.93,North,0,0.0,-999.0,88,0.00,,,-99.99,,2013-06-12 12:55:00,
2013-06-12 05:00:00,46.2,43.2,29.92,North,0,0.0,-999.0,88,0.00,,,-99.99,,2013-06-12 13:00:00,
2013-06-12 05:05:00,46.4,43.4,29.92,North,0,0.0,-999.0,89,0.00,,,-99.99,,2013-06-12 13:05:00,
2013-06-12 05:10:00,46.4,43.4,29.92,North,0,0.0,-999.0,89,0.00,,,-99.99,,2013-06-12 13:10:00,
2013-06-12 05:15:00,46.3,43.2,29.92,North,0,0.0,-999.0,88,0.00,,,-99.99,,2013-06-12 13:15:00,
2013-06-12 05:20:00,46.6,43.7,29.92,North,0,0.0,-999.0,89,0.00,,,-99.99,,2013-06-12 13:20:00,
2013-06-12 05:25:00,46.5,43.4,29.92,North,0,0.0,-999.0,88,0.00,,,-99.99,,2013-06-12 13:25:00,
2013-06-12 05:30:00,46.5,43.4,29.92,North,0,0.0,-999.0,89,0.00,,,-99.99,,2013-06-12 13:30:00,
2013-06-12 05:35:00,46.5,43.4,29.92,North,0,0.0,-999.0,88,0.00,,,-99.99,,2013-06-12 13:35:00,
2013-06-12 05:40:00,46.5,43.5,29.92,North,0,0.0,-999.0,89,0.00,,,-99.99,,2013-06-12 13:40:00,
2013-06-12 05:45:00,46.5,43.6,29.92,North,0,0.0,-999.0,89,0.00,,,-99.99,,2013-06-12 13:45:00,
2013-06-12 05:50:00,46.7,43.8,29.92,North,0,0.0,-999.0,89,0.00,,,-99.99,,2013-06-12 13:50:00,
2013-06-12 05:55:00,46.7,43.8,29.92,North,0,0.0,-999.0,89,0.00,,,-99.99,,2013-06-12 13:55:00,
2013-06-12 06:00:00,47.6,44.6,29.92,North,0,0.0,-999.0,89,0.00,,,-99.99,,2013-06-12 14:00:00,
2013-06-12 06:05:00,48.0,44.4,29.92,North,0,0.0,-999.0,87,0.00,,,-99.99,,2013-06-12 14:05:00,
2013-06-12 06:10:00,48.6,44.6,29.92,North,0,0.0,-999.0,86,0.00,,,-99.99,,2013-06-12 14:10:00,
2013-06-12 06:15:00,49.4,44.9,29.92,North,0,0.0,-999.0,84,0.00,,,-99.99,,2013-06-12 14:15:00,
2013-06-12 06:20:00,49.7,44.7,29.92,North,0,0.0,-999.0,82,0.00,,,-99.99,,2013-06-12 14:20:00,
2013-06-12 06:25:00,51.0,45.1,29.92,North,0,0.0,-999.0,80,0.00,,,-99.99,,2013-06-12 14:25:00,
2013-06-12 06:30:00,51.3,44.9,29.92,North,0,0.0,-999.0,78,0.00,,,-99.99,,2013-06-12 14:30:00,
2013-06-12 06:35:00,51.3,44.9,29.92,North,0,0.0,-999.0,78,0.00,,,-99.99,,2013-06-12 14:35:00,
2013-06-12 06:40:00,51.2,45.3,29.92,North,0,0.0,-999.0,80,0.00,,,-99.99,,2013-06-12 14:40:00,
2013-06-12 06:45:00,51.5,45.1,29.92,North,0,0.0,-999.0,78,0.00,,,-99.99,,2013-06-12 14:45:00,
2013-06-12 06:50:00,51.2,45.2,29.92,North,0,0.0,-999.0,79,0.00,,,-99.99,,2013-06-12 14:50:00,
2013-06-12 06:55:00,51.4,45.8,29.92,North,0,0.0,-999.0,81,0.00,,,-99.99,,2013-06-12 14:55:00,
2013-06-12 07:00:00,52.3,45.7,29.91,North,0,0.0,-999.0,78,0.00,,,-99.99,,2013-06-12 15:00:00,
2013-06-12 07:05:00,54.0,46.2,29.91,North,0,0.0,-999.0,74,0.00,,,-99.99,,2013-06-12 15:05:00,
2013-06-12 07:10:00,55.1,46.0,29.91,North,0,0.0,-999.0,71,0.00,,,-99.99,,2013-06-12 15:10:00,
2013-06-12 07:15:00,54.9,45.8,29.91,North,0,0.0,-999.0,71,0.00,,,-99.99,,2013-06-12 15:15:00,
2013-06-12 07:20:00,56.4,46.5,29.91,North,0,0.0,-999.0,69,0.00,,,-99.99,,2013-06-12 15:20:00,
2013-06-12 07:25:00,57.9,46.9,29.91,North,0,0.0,-999.0,66,0.00,,,-99.99,,2013-06-12 15:25:00,
2013-06-12 07:30:00,58.0,46.8,29.91,North,0,0.0,-999.0,66,0.00,,,-99.99,,2013-06-12 15:30:00,
2013-06-12 07:35:00,58.3,47.0,29.91,North,0,0.0,-999.0,65,0.00,,,-99.99,,2013-06-12 15:35:00,
2013-06-12 07:40:00,59.8,47.2,29.91,North,0,0.0,-999.0,62,0.00,,,-99.99,,2013-06-12 15:40:00,
2013-06-12 07:45:00,59.5,46.4,29.91,North,0,0.0,-999.0,61,0.00,,,-99.99,,2013-06-12 15:45:00,
2013-06-12 07:50:00,58.0,45.9,29.91,North,0,0.0,-999.0,63,0.00,,,-99.99,,2013-06-12 15:50:00,
2013-06-12 07:55:00,57.8,45.6,29.91,North,0,0.0,-999.0,63,0.00,,,-99.99,,2013-06-12 15:55:00,
2013-06-12 08:00:00,58.3,45.7,29.91,North,0,0.0,-999.0,62,0.00,,,-99.99,,2013-06-12 16:00:00,
2013-06-12 08:05:00,57.9,44.4,29.91,North,0,0.0,-999.0,60,0.00,,,-99.99,,2013-06-12 16:05:00,
2013-06-12 08:10:00,57.3,45.0,29.91,North,0,0.0,-999.0,63,0.00,,,-99.99,,2013-06-12 16:10:00,
2013-06-12 08:15:00,57.8,44.5,29.91,North,0,0.0,-999.0,60,0.00,,,-99.99,,2013-06-12 16:15:00,
2013-06-12 08:20:00,55.2,44.2,29.91,North,0,0.0,-999.0,66,0.00,,,-99.99,,2013-06-12 16:20:00,
2013-06-12 08:25:00,54.7,43.9,29.91,North,0,0.0,-999.0,66,0.00,,,-99.99,,2013-06-12 16:25:00,
2013-06-12 08:30:00,56.1,44.0,29.91,North,0,0.0,-999.0,63,0.00,,,-99.99,,2013-06-12 16:30:00,
2013-06-12 08:35:00,56.4,44.5,29.91,North,0,0.0,-999.0,64,0.00,,,-99.99,,2013-06-12 16:35:00,
2013-06-12 08:40:00,56.9,44.5,29.91,North,0,0.0,-999.0,62,0.00,,,-99.99,,2013-06-12 16:40:00,
2013-06-12 08:45:00,56.7,44.3,29.91,North,0,0.0,-999.0,62,0.00,,,-99.99,,2013-06-12 16:45:00,
2013-06-12 08:50:00,57.2,44.6,29.91,North,0,0.0,-999.0,62,0.00,,,-99.99,,2013-06-12 16:50:00,
2013-06-12 08:55:00,55.7,44.1,29.91,North,0,0.0,-999.0,64,0.00,,,-99.99,,2013-06-12 16:55:00,
2013-06-12 09:00:00,55.0,44.3,29.91,North,0,0.0,-999.0,67,0.00,,,-99.99,,2013-06-12 17:00:00,
2013-06-12 09:05:00,56.7,44.6,29.91,North,0,0.0,-999.0,63,0.00,,,-99.99,,2013-06-12 17:05:00,
2013-06-12 09:10:00,55.9,43.2,29.91,North,0,0.0,-999.0,62,0.00,,,-99.99,,2013-06-12 17:10:00,
2013-06-12 09:15:00,55.1,43.5,29.91,North,0,0.0,-999.0,64,0.00,,,-99.99,,2013-06-12 17:15:00,
2013-06-12 09:20:00,55.2,43.9,29.91,North,0,0.0,-999.0,65,0.00,,,-99.99,,2013-06-12 17:20:00,
2013-06-12 09:25:00,55.0,44.4,29.91,North,0,0.0,-999.0,67,0.00,,,-99.99,,2013-06-12 17:25:00,
2013-06-12 09:30:00,56.8,44.0,29.91,North,0,0.0,-999.0,62,0.00,,,-99.99,,2013-06-12 17:30:00,
2013-06-12 09:35:00,54.0,43.9,29.91,North,0,0.0,-999.0,68,0.00,,,-99.99,,2013-06-12 17:35:00,
2013-06-12 09:40:00,55.8,44.0,29.91,North,0,0.0,-999.0,64,0.00,,,-99.99,,2013-06-12 17:40:00,
2013-06-12 09:45:00,55.6,43.8,29.91,North,0,0.0,-999.0,64,0.00,,,-99.99,,2013-06-12 17:45:00,
2013-06-12 09:50:00,53.8,43.4,29.91,North,0,0.0,-999.0,67,0.00,,,-99.99,,2013-06-12 17:50:00,
2013-06-12 09:55:00,53.7,43.4,29.91,North,0,0.0,-999.0,68,0.00,,,-99.99,,2013-06-12 17:55:00,
2013-06-12 10:00:00,55.9,44.2,29.90,North,0,0.0,-999.0,64,0.00,,,-99.99,,2013-06-12 18:00:00,
2013-06-12 10:05:00,55.0,43.9,29.90,North,0,0.0,-999.0,66,0.00,,,-99.99,,2013-06-12 18:05:00,
2013-06-12 10:10:00,53.7,43.8,29.90,North,0,0.0,-999.0,69,0.00,,,-99.99,,2013-06-12 18:10:00,
2013-06-12 10:15:00,54.3,44.3,29.90,North,0,0.0,-999.0,68,0.00,,,-99.99,,2013-06-12 18:15:00,
2013-06-12 10:20:00,56.8,44.4,29.90,North,0,0.0,-999.0,63,0.00,,,-99.99,,2013-06-12 18:20:00,
2013-06-12 10:25:00,57.1,44.1,29.90,North,0,0.0,-999.0,61,0.00,,,-99.99,,2013-06-12 18:25:00,
2013-06-12 10:30:00,58.2,44.3,29.90,North,0,0.0,-999.0,59,0.00,,,-99.99,,2013-06-12 18:30:00,
2013-06-12 10:35:00,58.3,43.8,29.90,North,0,0.0,-999.0,58,0.00,,,-99.99,,2013-06-12 18:35:00,
2013-06-12 10:40:00,58.5,43.8,29.90,North,0,0.0,-999.0,57,0.00,,,-99.99,,2013-06-12 18:40:00,
2013-06-12 10:45:00,58.9,44.0,29.90,North,0,0.0,-999.0,57,0.00,,,-99.99,,2013-06-12 18:45:00,
2013-06-12 10:50:00,57.8,43.6,29.90,North,0,0.0,-999.0,59,0.00,,,-99.99,,2013-06-12 18:50:00,
2013-06-12 10:55:00,57.9,44.5,29.90,North,0,0.0,-999.0,60,0.00,,,-99.99,,2013-06-12 18:55:00,
2013-06-12 11:00:00,60.7,44.8,29.90,North,0,0.0,-999.0,55,0.00,,,-99.99,,2013-06-12 19:00:00,
2013-06-12 11:05:00,59.8,44.3,29.90,North,0,0.0,-999.0,56,0.00,,,-99.99,,2013-06-12 19:05:00,
2013-06-12 11:10:00,58.2,43.9,29.90,North,0,0.0,-999.0,58,0.00,,,-99.99,,2013-06-12 19:10:00,
2013-06-12 11:15:00,57.5,44.2,29.90,North,0,0.0,-999.0,61,0.00,,,-99.99,,2013-06-12 19:15:00,
2013-06-12 11:20:00,58.0,44.1,29.90,North,0,0.0,-999.0,59,0.00,,,-99.99,,2013-06-12 19:20:00,
2013-06-12 11:25:00,56.4,43.9,29.90,North,0,0.0,-999.0,62,0.00,,,-99.99,,2013-06-12 19:25:00,
2013-06-12 11:30:00,56.4,43.6,29.90,North,0,0.0,-999.0,62,0.00,,,-99.99,,2013-06-12 19:30:00,
2013-06-12 11:36:00,55.6,43.6,29.90,North,0,0.0,-999.0,64,0.00,,,-99.99,,2013-06-12 19:36:00,
2013-06-12 11:41:00,56.2,43.8,29.90,North,0,0.0,-999.0,62,0.00,,,-99.99,,2013-06-12 19:41:00,
2013-06-12 11:46:00,56.6,44.2,29.90,North,0,0.0,-999.0,63,0.00,,,-99.99,,2013-06-12 19:46:00,
2013-06-12 11:51:00,54.6,43.3,29.90,North,0,0.0,-999.0,65,0.00,,,-99.99,,2013-06-12 19:51:00,
2013-06-12 11:56:00,57.4,44.2,29.90,North,0,0.0,-999.0,61,0.00,,,-99.99,,2013-06-12 19:56:00,
2013-06-12 12:01:00,56.1,43.7,29.90,North,0,0.0,-999.0,63,0.00,,,-99.99,,2013-06-12 20:01:00,
2013-06-12 12:06:00,57.1,44.9,29.90,North,0,0.0,-999.0,63,0.00,,,-99.99,,2013-06-12 20:06:00,
2013-06-12 12:11:00,53.6,44.3,29.90,North,0,0.0,-999.0,70,0.00,,,-99.99,,2013-06-12 20:11:00,
2013-06-12 12:16:00,54.5,44.7,29.90,North,0,0.0,-999.0,69,0.00,,,-99.99,,2013-06-12 20:16:00,
2013-06-12 12:21:00,54.4,44.6,29.90,North,0,0.0,-999.0,69,0.00,,,-99.99,,2013-06-12 20:21:00,
2013-06-12 12:26:00,55.4,45.0,29.90,North,0,0.0,-999.0,67,0.00,,,-99.99,,2013-06-12 20:26:00,
2013-06-12 12:31:00,55.7,43.9,29.90,North,0,0.0,-999.0,64,0.00,,,-99.99,,2013-06-12 20:31:00,
2013-06-12 12:36:00,55.6,44.2,29.90,North,0,0.0,-999.0,65,0.00,,,-99.99,,2013-06-12 20:36:00,
2013-06-12 12:41:00,56.4,44.3,29.90,North,0,0.0,-999.0,63,0.00,,,-99.99,,2013-06-12 20:41:00,
2013-06-12 12:46:00,56.4,43.5,29.90,North,0,0.0,-999.0,61,0.00,,,-99.99,,2013-06-12 20:46:00,
2013-06-12 12:51:00,54.5,43.3,29.90,North,0,0.0,-999.0,65,0.00,,,-99.99,,2013-06-12 20:51:00,
2013-06-12 12:56:00,55.9,43.7,29.90,North,0,0.0,-999.0,63,0.00,,,-99.99,,2013-06-12 20:56:00,
2013-06-12 13:01:00,56.3,43.6,29.90,North,0,0.0,-999.0,62,0.00,,,-99.99,,2013-06-12 21:01:00,
2013-06-12 13:06:00,55.0,43.5,29.90,North,0,0.0,-999.0,65,0.00,,,-99.99,,2013-06-12 21:06:00,
2013-06-12 13:11:00,56.2,43.7,29.90,North,0,0.0,-999.0,62,0.00,,,-99.99,,2013-06-12 21:11:00,
2013-06-12 13:16:00,56.8,43.6,29.90,North,0,0.0,-999.0,61,0.00,,,-99.99,,2013-06-12 21:16:00,
2013-06-12 13:21:00,56.4,43.7,29.90,North,0,0.0,-999.0,62,0.00,,,-99.99,,2013-06-12 21:21:00,
2013-06-12 13:26:00,56.7,43.6,29.90,North,0,0.0,-999.0,61,0.00,,,-99.99,,2013-06-12 21:26:00,
2013-06-12 13:31:00,56.9,43.8,29.90,North,0,0.0,-999.0,61,0.00,,,-99.99,,2013-06-12 21:31:00,
2013-06-12 13:36:00,56.7,43.7,29.90,North,0,0.0,-999.0,61,0.00,,,-99.99,,2013-06-12 21:36:00,
2013-06-12 13:41:00,56.4,43.5,29.90,North,0,0.0,-999.0,61,0.00,,,-99.99,,2013-06-12 21:41:00,
2013-06-12 13:46:00,56.2,43.8,29.90,North,0,0.0,-999.0,63,0.00,,,-99.99,,2013-06-12 21:46:00,
2013-06-12 13:51:00,56.7,43.3,29.90,North,0,0.0,-999.0,60,0.00,,,-99.99,,2013-06-12 21:51:00,
2013-06-12 13:56:00,57.0,43.7,29.90,North,0,0.0,-999.0,60,0.00,,,-99.99,,2013-06-12 21:56:00,
2013-06-12 14:01:00,59.1,44.7,29.89,North,0,0.0,-999.0,58,0.00,,,-99.99,,2013-06-12 22:01:00,
2013-06-12 14:06:00,59.2,44.0,29.89,North,0,0.0,-999.0,57,0.00,,,-99.99,,2013-06-12 22:06:00,
2013-06-12 14:11:00,58.5,43.6,29.89,North,0,0.0,-999.0,57,0.00,,,-99.99,,2013-06-12 22:11:00,
2013-06-12 14:16:00,58.5,43.3,29.89,North,0,0.0,-999.0,56,0.00,,,-99.99,,2013-06-12 22:16:00,
2013-06-12 14:21:00,58.1,43.3,29.89,North,0,0.0,-999.0,57,0.00,,,-99.99,,2013-06-12 22:21:00,
2013-06-12 14:26:00,58.4,43.4,29.89,North,0,0.0,-999.0,57,0.00,,,-99.99,,2013-06-12 22:26:00,
2013-06-12 14:31:00,57.7,43.3,29.89,North,0,0.0,-999.0,58,0.00,,,-99.99,,2013-06-12 22:31:00,
2013-06-12 14:36:00,56.7,44.3,29.89,North,0,0.0,-999.0,63,0.00,,,-99.99,,2013-06-12 22:36:00,
2013-06-12 14:41:00,56.4,44.5,29.89,North,0,0.0,-999.0,64,0.00,,,-99.99,,2013-06-12 22:41:00,
2013-06-12 14:46:00,56.4,44.0,29.89,North,0,0.0,-999.0,63,0.00,,,-99.99,,2013-06-12 22:46:00,
2013-06-12 14:51:00,55.7,43.5,29.89,North,0,0.0,-999.0,63,0.00,,,-99.99,,2013-06-12 22:51:00,
2013-06-12 14:56:00,55.8,43.8,29.89,North,0,0.0,-999.0,64,0.00,,,-99.99,,2013-06-12 22:56:00,
2013-06-12 15:01:00,56.3,43.7,29.89,North,0,0.0,-999.0,62,0.00,,,-99.99,,2013-06-12 23:01:00,
2013-06-12 15:06:00,56.5,43.9,29.89,North,0,0.0,-999.0,62,0.00,,,-99.99,,2013-06-12 23:06:00,
2013-06-12 15:11:00,57.2,44.4,29.89,North,0,0.0,-999.0,62,0.00,,,-99.99,,2013-06-12 23:11:00,
2013-06-12 15:16:00,58.5,44.0,29.89,North,0,0.0,-999.0,58,0.00,,,-99.99,,2013-06-12 23:16:00,
2013-06-12 15:21:00,58.5,44.0,29.89,North,0,0.0,-999.0,58,0.00,,,-99.99,,2013-06-12 23:21:00,
2013-06-12 15:26:00,59.4,44.1,29.89,North,0,0.0,-999.0,56,0.00,,,-99.99,,2013-06-12 23:26:00,
2013-06-12 15:31:00,58.0,43.8,29.89,North,0,0.0,-999.0,59,0.00,,,-99.99,,2013-06-12 23:31:00,
2013-06-12 15:36:00,56.6,43.1,29.89,North,0,0.0,-999.0,60,0.00,,,-99.99,,2013-06-12 23:36:00,
2013-06-12 15:41:00,57.0,43.4,29.89,North,0,0.0,-999.0,60,0.00,,,-99.99,,2013-06-12 23:41:00,
2013-06-12 15:46:00,57.5,43.4,29.89,North,0,0.0,-999.0,59,0.00,,,-99.99,,2013-06-12 23:46:00,
2013-06-12 15:51:00,57.7,43.9,29.89,North,0,0.0,-999.0,60,0.00,,,-99.99,,2013-06-12 23:51:00,
2013-06-12 15:56:00,57.2,44.5,29.89,North,0,0.0,-999.0,62,0.00,,,-99.99,,2013-06-12 23:56:00,
2013-06-12 16:01:00,57.7,44.9,29.87,North,0,0.0,-999.0,62,0.00,,,-99.99,,2013-06-13 00:01:00,
2013-06-12 16:06:00,57.8,44.8,29.87,North,0,0.0,-999.0,61,0.00,,,-99.99,,2013-06-13 00:06:00,
2013-06-12 16:11:00,57.4,45.1,29.87,North,0,0.0,-999.0,63,0.00,,,-99.99,,2013-06-13 00:11:00,
2013-06-12 16:16:00,57.7,45.1,29.87,North,0,0.0,-999.0,62,0.00,,,-99.99,,2013-06-13 00:16:00,
2013-06-12 16:21:00,58.0,44.8,29.87,North,0,0.0,-999.0,61,0.00,,,-99.99,,2013-06-13 00:21:00,
2013-06-12 16:26:00,57.8,44.2,29.87,North,0,0.0,-999.0,60,0.00,,,-99.99,,2013-06-13 00:26:00,
2013-06-12 16:31:00,57.3,44.0,29.87,North,0,0.0,-999.0,61,0.00,,,-99.99,,2013-06-13 00:31:00,
2013-06-12 16:36:00,56.1,43.4,29.87,North,0,0.0,-999.0,62,0.00,,,-99.99,,2013-06-13 00:36:00,
2013-06-12 16:41:00,56.7,44.0,29.87,North,0,0.0,-999.0,62,0.00,,,-99.99,,2013-06-13 00:41:00,
2013-06-12 16:46:00,56.5,44.1,29.87,North,0,0.0,-999.0,62,0.00,,,-99.99,,2013-06-13 00:46:00,
2013-06-12 16:51:00,56.6,44.3,29.87,North,0,0.0,-999.0,63,0.00,,,-99.99,,2013-06-13 00:51:00,
2013-06-12 16:56:00,57.4,44.6,29.87,North,0,0.0,-999.0,62,0.00,,,-99.99,,2013-06-13 00:56:00,
2013-06-12 17:01:00,56.2,44.6,29.87,North,0,0.0,-999.0,64,0.00,,,-99.99,,2013-06-13 01:01:00,
2013-06-12 17:06:00,56.9,44.5,29.87,North,0,0.0,-999.0,63,0.00,,,-99.99,,2013-06-13 01:06:00,
2013-06-12 17:11:00,56.7,44.4,29.87,North,0,0.0,-999.0,63,0.00,,,-99.99,,2013-06-13 01:11:00,
2013-06-12 17:16:00,57.6,45.1,29.87,North,0,0.0,-999.0,62,0.00,,,-99.99,,2013-06-13 01:16:00,
2013-06-12 17:21:00,58.7,44.8,29.87,North,0,0.0,-999.0,59,0.00,,,-99.99,,2013-06-13 01:21:00,
2013-06-12 17:26:00,60.0,44.3,29.87,North,0,0.0,-999.0,55,0.00,,,-99.99,,2013-06-13 01:26:00,
2013-06-12 17:31:00,58.6,44.7,29.87,North,0,0.0,-999.0,59,0.00,,,-99.99,,2013-06-13 01:31:00,
2013-06-12 17:36:00,60.0,45.7,29.87,North,0,0.0,-999.0,58,0.00,,,-99.99,,2013-06-13 01:36:00,
2013-06-12 17:41:00,60.0,45.5,29.87,North,0,0.0,-999.0,58,0.00,,,-99.99,,2013-06-13 01:41:00,
2013-06-12 17:46:00,60.8,45.5,29.87,North,0,0.0,-999.0,57,0.00,,,-99.99,,2013-06-13 01:46:00,
2013-06-12 17:51:00,57.9,44.8,29.87,North,0,0.0,-999.0,61,0.00,,,-99.99,,2013-06-13 01:51:00,
2013-06-12 17:56:00,57.5,45.8,29.87,North,0,0.0,-999.0,64,0.00,,,-99.99,,2013-06-13 01:56:00,
2013-06-12 18:01:00,59.8,45.6,29.87,North,0,0.0,-999.0,59,0.00,,,-99.99,,2013-06-13 02:01:00,
2013-06-12 18:06:00,59.9,45.7,29.87,North,0,0.0,-999.0,59,0.00,,,-99.99,,2013-06-13 02:06:00,
2013-06-12 18:11:00,60.7,45.6,29.87,North,0,0.0,-999.0,57,0.00,,,-99.99,,2013-06-13 02:11:00,
2013-06-12 18:16:00,61.0,45.6,29.87,North,0,0.0,-999.0,56,0.00,,,-99.99,,2013-06-13 02:16:00,
2013-06-12 18:21:00,60.2,45.4,29.87,North,0,0.0,-999.0,57,0.00,,,-99.99,,2013-06-13 02:21:00,
2013-06-12 18:26:00,58.6,45.2,29.87,North,0,0.0,-999.0,60,0.00,,,-99.99,,2013-06-13 02:26:00,
2013-06-12 18:31:00,57.5,44.6,29.87,North,0,0.0,-999.0,61,0.00,,,-99.99,,2013-06-13 02:31:00,
2013-06-12 18:36:00,57.3,44.5,29.87,North,0,0.0,-999.0,62,0.00,,,-99.99,,2013-06-13 02:36:00,
2013-06-12 18:41:00,56.4,44.2,29.87,North,0,0.0,-999.0,63,0.00,,,-99.99,,2013-06-13 02:41:00,
2013-06-12 18:46:00,56.9,44.6,29.87,North,0,0.0,-999.0,63,0.00,,,-99.99,,2013-06-13 02:46:00,
2013-06-12 18:51:00,56.8,44.6,29.87,North,0,0.0,-999.0,63,0.00,,,-99.99,,2013-06-13 02:51:00,
2013-06-12 18:56:00,56.9,44.6,29.87,North,0,0.0,-999.0,63,0.00,,,-99.99,,2013-06-13 02:56:00,
2013-06-12 19:01:00,56.6,44.4,29.88,North,0,0.0,-999.0,63,0.00,,,-99.99,,2013-06-13 03:01:00,
2013-06-12 19:06:00,55.9,44.2,29.88,North,0,0.0,-999.0,64,0.00,,,-99.99,,2013-06-13 03:06:00,
2013-06-12 19:11:00,55.1,43.6,29.88,North,0,0.0,-999.0,65,0.00,,,-99.99,,2013-06-13 03:11:00,
2013-06-12 19:16:00,54.7,43.7,29.88,North,0,0.0,-999.0,66,0.00,,,-99.99,,2013-06-13 03:16:00,
2013-06-12 19:21:00,55.1,43.5,29.88,North,0,0.0,-999.0,64,0.00,,,-99.99,,2013-06-13 03:21:00,
2013-06-12 19:26:00,55.2,42.7,29.88,North,0,0.0,-999.0,62,0.00,,,-99.99,,2013-06-13 03:26:00,
2013-06-12 19:31:00,55.8,42.8,29.88,North,0,0.0,-999.0,61,0.00,,,-99.99,,2013-06-13 03:31:00,
2013-06-12 19:36:00,55.4,42.1,29.88,North,0,0.0,-999.0,60,0.00,,,-99.99,,2013-06-13 03:36:00,
2013-06-12 19:41:00,55.2,42.8,29.88,North,0,0.0,-999.0,62,0.00,,,-99.99,,2013-06-13 03:41:00,
2013-06-12 19:46:00,54.0,43.0,29.88,North,0,0.0,-999.0,66,0.00,,,-99.99,,2013-06-13 03:46:00,
2013-06-12 19:51:00,52.9,43.1,29.88,North,0,0.0,-999.0,69,0.00,,,-99.99,,2013-06-13 03:51:00,
2013-06-12 19:56:00,52.4,43.2,29.88,North,0,0.0,-999.0,70,0.00,,,-99.99,,2013-06-13 03:56:00,
2013-06-12 20:01:00,52.0,43.2,29.89,North,0,0.0,-999.0,71,0.00,,,-99.99,,2013-06-13 04:01:00,
2013-06-12 20:02:00,52.1,43.4,29.89,North,0,0.0,-999.0,71,0.00,,,-99.99,,2013-06-13 04:02:00,
2013-06-12 20:04:00,51.9,43.1,29.89,North,0,0.0,-999.0,71,0.00,,,-99.99,,2013-06-13 04:04:00,
2013-06-12 20:05:00,51.7,43.1,29.89,North,0,0.0,-999.0,72,0.00,,,-99.99,,2013-06-13 04:05:00,
2013-06-12 20:08:00,51.8,43.2,29.89,North,0,0.0,-999.0,72,0.00,,,-99.99,,2013-06-13 04:08:00,
2013-06-12 20:13:00,51.6,43.4,29.89,North,0,0.0,-999.0,73,0.00,,,-99.99,,2013-06-13 04:13:00,
2013-06-12 20:18:00,51.5,43.2,29.89,North,0,0.0,-999.0,73,0.00,,,-99.99,,2013-06-13 04:18:00,
2013-06-12 20:23:00,51.3,43.4,29.89,North,0,0.0,-999.0,74,0.00,,,-99.99,,2013-06-13 04:23:00,
2013-06-12 20:28:00,51.5,43.5,29.89,North,0,0.0,-999.0,74,0.00,,,-99.99,,2013-06-13 04:28:00,
2013-06-12 20:33:00,51.6,43.7,29.89,North,0,0.0,-999.0,74,0.00,,,-99.99,,2013-06-13 04:33:00,
2013-06-12 20:38:00,51.7,43.8,29.89,North,0,0.0,-999.0,74,0.00,,,-99.99,,2013-06-13 04:38:00,
2013-06-12 20:43:00,51.2,43.5,29.89,North,0,0.0,-999.0,74,0.00,,,-99.99,,2013-06-13 04:43:00,
2013-06-12 20:48:00,51.2,43.8,29.89,North,0,0.0,-999.0,75,0.00,,,-99.99,,2013-06-13 04:48:00,
2013-06-12 20:53:00,51.3,43.8,29.89,North,0,0.0,-999.0,75,0.00,,,-99.99,,2013-06-13 04:53:00,
2013-06-12 20:58:00,51.2,43.9,29.89,North,0,0.0,-999.0,76,0.00,,,-99.99,,2013-06-13 04:58:00,
2013-06-12 21:03:00,51.2,43.7,29.88,North,0,0.0,-999.0,75,0.00,,,-99.99,,2013-06-13 05:03:00,
2013-06-12 21:08:00,50.5,44.0,29.88,North,0,0.0,-999.0,78,0.00,,,-99.99,,2013-06-13 05:08:00,
2013-06-12 21:13:00,50.2,43.9,29.88,North,0,0.0,-999.0,78,0.00,,,-99.99,,2013-06-13 05:13:00,
2013-06-12 21:18:00,49.8,43.7,29.88,North,0,0.0,-999.0,79,0.00,,,-99.99,,2013-06-13 05:18:00,
2013-06-12 21:23:00,48.9,43.5,29.88,North,0,0.0,-999.0,81,0.00,,,-99.99,,2013-06-13 05:23:00,
2013-06-12 21:28:00,48.4,43.4,29.88,North,0,0.0,-999.0,82,0.00,,,-99.99,,2013-06-13 05:28:00,
2013-06-12 21:33:00,48.3,43.3,29.88,North,0,0.0,-999.0,82,0.00,,,-99.99,,2013-06-13 05:33:00,
2013-06-12 21:38:00,47.9,43.3,29.88,North,0,0.0,-999.0,84,0.00,,,-99.99,,2013-06-13 05:38:00,
2013-06-12 21:43:00,47.4,43.2,29.88,North,0,0.0,-999.0,85,0.00,,,-99.99,,2013-06-13 05:43:00,
2013-06-12 21:48:00,47.2,43.4,29.88,North,0,0.0,-999.0,86,0.00,,,-99.99,,2013-06-13 05:48:00,
2013-06-12 21:53:00,47.0,43.2,29.88,North,0,0.0,-999.0,86,0.00,,,-99.99,,2013-06-13 05:53:00,
2013-06-12 21:58:00,46.7,43.0,29.88,North,0,0.0,-999.0,87,0.00,,,-99.99,,2013-06-13 05:58:00,
2013-06-12 22:03:00,46.5,43.1,29.90,North,0,0.0,-999.0,87,0.00,,,-99.99,,2013-06-13 06:03:00,
2013-06-12 22:08:00,46.7,43.1,29.90,North,0,0.0,-999.0,87,0.00,,,-99.99,,2013-06-13 06:08:00,
2013-06-12 22:13:00,46.4,43.1,29.90,North,0,0.0,-999.0,87,0.00,,,-99.99,,2013-06-13 06:13:00,
2013-06-12 22:18:00,46.7,43.3,29.90,North,0,0.0,-999.0,87,0.00,,,-99.99,,2013-06-13 06:18:00,
2013-06-12 22:23:00,46.1,42.9,29.90,North,0,0.0,-999.0,88,0.00,,,-99.99,,2013-06-13 06:23:00,
2013-06-12 22:28:00,45.9,42.8,29.90,North,0,0.0,-999.0,88,0.00,,,-99.99,,2013-06-13 06:28:00,
2013-06-12 22:33:00,45.7,42.8,29.90,North,0,0.0,-999.0,89,0.00,,,-99.99,,2013-06-13 06:33:00,
2013-06-12 22:38:00,45.8,43.0,29.90,North,0,0.0,-999.0,90,0.00,,,-99.99,,2013-06-13 06:38:00,
2013-06-12 22:43:00,46.0,43.1,29.90,North,0,0.0,-999.0,89,0.00,,,-99.99,,2013-06-13 06:43:00,
2013-06-12 22:48:00,45.6,42.8,29.90,North,0,0.0,-999.0,89,0.00,,,-99.99,,2013-06-13 06:48:00,
2013-06-12 22:53:00,45.8,43.0,29.90,North,0,0.0,-999.0,89,0.00,,,-99.99,,2013-06-13 06:53:00,
2013-06-12 22:58:00,45.8,42.9,29.90,North,0,0.0,-999.0,89,0.00,,,-99.99,,2013-06-13 06:58:00,
2013-06-12 23:03:00,45.6,42.9,29.91,North,0,0.0,-999.0,90,0.00,,,-99.99,,2013-06-13 07:03:00,
2013-06-12 23:08:00,45.6,43.0,29.91,North,0,0.0,-999.0,90,0.00,,,-99.99,,2013-06-13 07:08:00,
2013-06-12 23:13:00,46.2,43.6,29.91,North,0,0.0,-999.0,90,0.00,,,-99.99,,2013-06-13 07:13:00,
2013-06-12 23:18:00,45.7,43.1,29.91,North,0,0.0,-999.0,90,0.00,,,-99.99,,2013-06-13 07:18:00,
2013-06-12 23:23:00,45.1,42.8,29.91,North,0,0.0,-999.0,91,0.00,,,-99.99,,2013-06-13 07:23:00,
2013-06-12 23:28:00,45.0,42.9,29.91,North,0,0.0,-999.0,92,0.00,,,-99.99,,2013-06-13 07:28:00,
2013-06-12 23:33:00,44.9,42.8,29.91,North,0,0.0,-999.0,92,0.00,,,-99.99,,2013-06-13 07:33:00,
2013-06-12 23:38:00,45.0,42.8,29.91,North,0,0.0,-999.0,92,0.00,,,-99.99,,2013-06-13 07:38:00,
2013-06-12 23:43:00,44.8,43.0,29.91,North,0,0.0,-999.0,93,0.00,,,-99.99,,2013-06-13 07:43:00,
2013-06-12 23:48:00,44.5,42.8,29.91,North,0,0.0,-999.0,93,0.00,,,-99.99,,2013-06-13 07:48:00,
2013-06-12 23:53:00,44.9,43.1,29.91,North,0,0.0,-999.0,93,0.00,,,-99.99,,2013-06-13 07:53:00,
2013-06-12 23:58:00,45.0,43.2,29.91,North,0,0.0,-999.0,93,0.00,,,-99.99,,2013-06-13 07:58:00,